Location: *
(50.3194°N, 7.1067°E)
Time: 11:53:01
(UTC+00:00)

Cosmos 1455 Rocket - Pass Details

Date: 22 September 2019
Orbit: 605 x 630 km, 82.5° (Epoch: 17 October)

Event Time Altitude Azimuth Distance (km) Brightness Sun altitude
Rises 19:42:22 0° 203° (SSW) 2,898 6.5 -21.1°
Reaches altitude 10° 19:44:38 10° 208° (SSW) 1,999 5.7 -21.4°
Maximum altitude 19:48:58 51° 285° (WNW) 799 3.9 -22.0°
Drops below altitude 10° 19:53:20 10° 1° (N) 2,022 6.0 -22.6°
Sets 19:55:39 0° 7° (N) 2,935 6.8 -22.9°
